Location: Helsinki
(60.1699°N, 24.9384°E)
Time: 03:44:41
(UTC+02:00)

Transit 4A - Pass Details

Date: 04 November 2020
Orbit: 862 x 982 km, 66.8° (Epoch: 25 November)

Event Time Altitude Azimuth Distance (km) Brightness Sun altitude
Rises 16:39:43 0° 253° (WSW) 3,653 13.5 -3.5°
Reaches altitude 10° 16:42:19 10° 257° (WSW) 2,720 12.1 -3.8°
Maximum altitude 16:48:37 59° 337° (NNW) 1,125 8.4 -4.6°
Drops below altitude 10° 16:55:00 10° 57° (ENE) 2,746 9.7 -5.3°
Enters shadow 16:56:00 - 59° (ENE) 3,100 10.0 -5.4°
Sets 16:57:38 0° 61° (ENE) 3,691 - -5.6°
